Wind_Speed
3 5 5 5 6 8 8 8 9 10 10 13 17 19 18 18 18 18 18 19 20 20 22 24 25 27 30 32 35 37 39 41 43 45 45 46 46 47 47 46 45 42 41 41
8 10 6 2 4 6 7 10 11 11 14 14 15 18 15 14 14 15 16 17 18 20 21 23 26 28 30 33 35 37 39 40 42 43 44 45 45 46 46 46 45 44 42 42
13 9 7 5 6 7 9 11 12 13 14 14 15 17 14 11 11 12 14 17 18 20 21 23 25 27 29 31 33 35 36 38 40 42 43 45 46 46 46 46 46 45 44 44
9 8 7 7 8 8 11 11 11 11 13 17 18 20 17 14 9 11 15 18 20 21 22 24 26 27 29 31 33 35 36 38 40 42 44 45 46 46 46 47 47 47 47 46
4 5 6 6 6 8 9 8 10 13 17 21 22 22 16 11 7 14 18 20 22 23 24 25 27 28 30 33 35 37 37 38 40 42 44 44 45 46 47 47 47 46 46 45
4 6 6 5 5 6 8 9 13 16 19 19 16 14 11 17 18 20 22 23 23 24 25 27 28 30 32 34 36 38 39 39 40 41 43 44 45 45 46 46 46 45 44 44
3 3 4 7 7 8 7 10 15 20 23 17 13 9 12 19 21 23 25 25 25 26 27 29 30 32 34 36 37 38 40 40 40 41 42 43 44 44 43 43 43 42 41 41
10 8 8 9 9 8 7 9 13 17 21 19 14 9 15 19 21 22 24 24 25 27 28 30 32 34 36 38 39 40 40 40 41 41 42 42 41 41 40 41 41 40 39 39
8 10 11 11 9 8 7 7 9 9 11 14 18 18 17 19 21 22 23 24 26 28 30 32 34 36 38 39 40 41 41 41 41 41 40 40 39 39 39 39 39 39 40 40
8 7 7 11 9 9 10 9 9 6 7 7 13 19 20 22 22 23 24 25 27 30 32 34 36 38 40 40 41 41 41 41 41 40 39 38 38 38 39 39 39 40 41 43
8 6 5 6 9 10 10 10 10 8 7 5 9 21 21 22 23 23 25 27 29 31 33 35 37 39 41 41 42 42 42 41 40 40 39 38 38 39 39 40 41 42 43 44
7 5 5 7 9 7 9 11 11 10 10 8 9 21 22 22 23 25 27 28 30 32 34 36 39 41 41 42 42 42 41 41 41 40 39 39 39 40 41 42 43 44 45 46
8 6 6 12 13 8 10 13 12 11 10 8 9 20 25 26 26 27 29 30 32 34 36 38 40 41 42 42 42 42 42 42 42 41 40 40 41 42 43 43 45 45 46 47
8 8 6 9 11 11 11 13 15 13 11 12 15 19 24 26 26 27 29 31 33 35 37 39 41 42 43 43 43 43 42 43 42 42 41 42 42 43 43 44 45 46 47 49
8 8 9 8 10 12 13 14 15 15 15 15 18 21 25 26 27 28 30 32 34 36 39 41 42 44 44 44 44 44 44 43 43 43 42 43 43 43 44 45 46 47 47 47
11 10 10 9 10 12 13 15 17 17 18 19 21 24 26 27 28 29 30 32 35 37 39 42 44 45 45 45 45 45 44 44 43 43 43 43 43 44 45 46 46 46 46 46
14 13 12 9 10 11 15 16 19 20 21 22 24 26 27 27 29 29 30 32 35 38 41 44 45 46 46 46 46 45 45 44 43 43 43 44 44 44 45 45 46 46 45 45
14 14 14 12 10 13 16 19 20 23 24 24 25 27 28 29 31 31 31 34 37 40 43 45 46 46 47 47 46 46 45 44 44 43 43 44 44 44 44 45 46 45 44 43
17 16 15 14 12 13 18 22 20 23 25 23 24 25 27 28 31 34 34 37 40 42 44 46 47 47 47 47 47 46 45 45 44 44 44 44 44 44 44 45 45 44 42 40
19 19 17 16 15 14 18 22 21 24 28 24 26 27 28 29 30 33 36 38 40 42 45 46 46 48 48 48 47 46 45 45 44 44 44 44 44 44 44 44 44 42 40 37
22 21 19 19 18 18 23 23 24 26 27 28 29 29 29 30 31 33 35 38 41 43 45 46 47 48 49 48 47 46 45 45 45 44 44 44 44 44 43 43 43 40 38 36
19 19 20 21 20 22 26 27 27 26 26 27 28 28 29 30 32 34 37 39 41 43 45 46 46 48 48 48 47 46 45 45 44 44 44 44 43 43 43 43 41 38 37 34
19 21 21 21 23 27 28 28 28 27 27 27 27 28 29 31 33 35 38 40 42 44 44 45 46 47 48 48 48 46 45 45 44 43 44 43 43 43 43 41 39 37 35 33
21 27 26 24 23 26 28 28 28 27 27 27 27 29 30 32 34 36 39 41 42 44 44 44 45 46 47 48 47 46 45 44 44 43 43 43 42 42 42 40 39 37 34 32
21 26 28 28 27 27 26 27 27 27 27 27 28 30 31 33 35 38 40 42 42 43 43 43 44 46 47 47 47 46 45 44 43 42 42 42 42 42 41 39 38 37 33 30
23 25 27 27 27 28 27 27 27 27 27 28 29 31 33 35 37 38 40 41 42 42 42 43 44 45 46 47 47 46 44 43 42 41 41 41 41 40 40 38 36 35 32 28
Wind_Direction
335 299 274 234 240 278 306 291 275 265 273 276 282 286 285 286 288 290 289 286 285 283 281 280 279 279 279 279 280 282 283 284 285 286 287 287 288 288 288 288 287 286 285 285
300 277 272 313 295 278 265 266 270 274 278 282 282 284 284 289 296 299 299 296 293 290 287 286 284 283 282 282 283 284 285 286 286 286 287 287 287 287 287 287 287 286 285 284
306 328 331 325 302 267 259 256 267 275 286 286 275 268 263 275 295 306 308 306 303 298 295 292 290 289 288 287 287 288 288 288 289 288 288 288 288 288 288 288 288 287 285 283
308 320 318 311 288 277 270 254 266 280 283 282 274 269 273 277 286 313 318 315 311 307 304 301 299 297 295 294 293 293 293 293 293 292 292 292 292 291 290 289 288 287 286 284
330 339 322 304 298 299 300 295 280 272 270 268 268 273 279 303 318 325 325 321 316 313 311 310 307 305 303 302 301 300 299 298 296 296 295 294 293 293 292 290 289 288 287 285
36 19 349 323 305 302 307 304 294 291 286 285 287 292 319 344 341 335 329 325 322 319 317 316 314 312 310 308 307 306 305 303 301 299 298 297 296 295 294 293 292 291 289 287
47 360 347 332 315 300 312 313 313 324 333 342 351 334 342 342 339 334 329 326 324 323 322 321 320 318 316 314 313 311 310 309 307 304 302 300 299 297 296 295 294 293 292 291
0 355 342 324 315 312 323 324 327 333 334 341 342 340 339 335 332 329 326 326 326 326 326 326 325 324 322 320 318 316 314 311 309 307 304 302 300 298 297 296 295 293 291 290
350 340 333 328 324 325 323 314 314 327 338 340 336 332 332 332 329 329 329 328 329 329 328 328 327 327 325 323 320 318 316 313 311 308 306 303 301 299 297 296 294 293 291 289
326 318 316 331 341 334 332 329 327 335 335 350 333 316 319 323 325 328 329 329 330 330 330 329 329 328 327 324 322 319 317 315 313 310 306 303 301 299 297 295 294 292 291 289
313 312 305 326 327 325 323 322 321 323 318 324 321 304 314 318 323 327 328 329 329 330 330 330 330 329 328 326 324 321 319 317 315 312 308 304 302 300 298 296 295 293 291 289
309 314 298 285 280 303 318 320 323 328 326 333 324 302 311 318 323 326 327 328 328 330 331 331 331 330 329 328 325 323 321 319 317 314 310 307 304 302 300 299 297 295 293 291
308 304 310 314 310 334 339 324 321 319 319 315 306 298 310 316 323 325 326 327 329 330 331 331 332 331 330 329 327 325 322 320 318 315 312 309 307 305 303 301 300 297 296 294
304 297 291 308 320 322 316 315 316 316 311 301 295 296 302 312 319 322 324 326 328 331 332 332 332 332 331 330 328 326 324 322 319 317 314 311 310 308 306 305 303 301 299 297
307 303 296 294 295 299 303 306 308 310 310 309 307 308 309 318 320 323 325 327 330 332 332 332 332 333 332 331 329 328 326 324 321 318 315 314 312 311 309 308 307 305 303 300
310 307 303 300 297 301 309 308 310 312 313 313 313 312 315 321 321 325 327 328 331 332 332 333 334 334 334 333 331 329 328 325 322 320 318 317 315 313 312 311 310 308 306 303
310 313 310 303 298 307 305 300 305 311 312 312 313 314 318 320 321 325 328 328 330 333 335 336 336 335 335 334 333 331 329 327 325 323 321 320 318 317 316 315 314 312 310 307
309 311 312 306 300 304 300 302 304 307 308 311 313 315 319 321 322 326 329 330 334 336 338 337 337 336 336 335 334 333 331 329 328 326 324 323 322 321 320 319 318 316 313 311
311 314 313 310 303 301 299 300 304 306 306 312 312 315 318 322 322 325 331 334 336 337 338 338 338 338 337 337 336 334 333 332 330 329 327 326 325 324 324 323 322 320 318 314
306 311 312 312 310 303 293 297 308 309 308 317 316 320 322 323 324 326 331 334 335 336 337 338 338 339 339 338 337 336 335 334 332 331 330 330 329 328 327 326 325 323 321 317
300 310 314 314 315 306 298 305 305 304 309 313 316 319 320 321 324 327 329 332 334 336 337 338 338 339 340 340 339 338 337 336 334 333 333 333 332 331 330 330 329 327 325 321
296 297 298 301 300 290 298 303 302 304 306 308 312 316 319 321 324 327 329 331 334 335 337 338 339 340 340 341 340 339 338 337 336 336 336 336 335 335 334 333 333 331 328 325
294 294 294 295 294 294 298 301 302 304 306 308 312 316 319 321 324 327 329 331 333 334 336 337 339 340 341 341 341 340 340 339 338 338 338 339 338 338 338 337 337 335 332 329
284 289 297 299 295 292 297 300 302 304 306 309 312 315 318 321 324 326 328 331 332 334 335 336 338 340 341 342 342 341 341 341 340 340 341 341 341 342 341 341 340 338 336 334
287 288 294 299 300 298 298 299 302 304 307 310 312 314 317 320 323 326 328 331 332 333 335 336 338 340 341 342 342 342 342 342 341 342 343 343 344 344 345 344 343 343 341 340
289 287 291 296 299 300 300 301 303 305 307 309 312 314 316 319 322 325 328 330 332 333 334 336 338 340 341 342 343 343 342 343 343 343 344 345 347 347 348 348 347 347 347 346
Height
5864 5864 5863 5863 5865 5866 5866 5865 5865 5865 5865 5866 5864 5864 5863 5861 5860 5859 5858 5857 5856 5856 5855 5854 5853 5852 5851 5850 5848 5846 5844 5841 5838 5835 5832 5829 5826 5823 5820 5818 5816 5815 5813 5811
5865 5863 5862 5862 5864 5866 5867 5866 5864 5864 5864 5864 5863 5861 5859 5858 5856 5855 5854 5853 5852 5852 5851 5849 5848 5847 5845 5843 5841 5838 5836 5833 5829 5826 5823 5820 5817 5813 5810 5808 5806 5805 5804 5802
5863 5862 5863 5863 5864 5864 5864 5864 5864 5864 5863 5862 5860 5856 5852 5853 5853 5852 5851 5850 5849 5847 5846 5844 5842 5840 5838 5836 5833 5831 5828 5825 5821 5817 5813 5810 5806 5803 5800 5797 5795 5793 5793 5791
5864 5863 5863 5863 5863 5863 5863 5863 5863 5861 5860 5857 5854 5849 5846 5845 5848 5848 5847 5847 5845 5843 5841 5839 5837 5834 5831 5828 5825 5822 5819 5816 5812 5807 5803 5799 5795 5792 5789 5786 5784 5782 5780 5779
5864 5863 5863 5864 5863 5862 5862 5862 5861 5859 5856 5851 5847 5844 5842 5839 5840 5845 5845 5843 5841 5839 5836 5834 5831 5827 5824 5820 5817 5813 5810 5806 5802 5797 5792 5788 5784 5780 5777 5774 5772 5770 5768 5766
5863 5863 5864 5864 5863 5863 5862 5861 5859 5857 5853 5849 5844 5843 5840 5841 5840 5841 5841 5840 5838 5835 5832 5828 5825 5821 5817 5813 5808 5803 5799 5795 5791 5786 5782 5777 5773 5769 5765 5762 5759 5757 5755 5753
5862 5863 5864 5864 5863 5862 5861 5861 5858 5854 5848 5846 5844 5842 5843 5843 5841 5840 5839 5837 5834 5831 5827 5823 5819 5815 5810 5805 5800 5795 5790 5785 5780 5776 5771 5766 5762 5758 5754 5751 5748 5745 5743 5741
5862 5862 5863 5863 5863 5861 5861 5860 5859 5856 5852 5847 5844 5841 5844 5844 5842 5840 5838 5835 5831 5827 5823 5818 5813 5809 5803 5797 5792 5786 5781 5776 5771 5766 5761 5756 5751 5747 5744 5741 5738 5735 5733 5731
5865 5865 5864 5862 5861 5861 5860 5859 5859 5857 5855 5852 5847 5845 5844 5843 5841 5839 5836 5832 5828 5824 5819 5814 5808 5803 5797 5791 5784 5778 5772 5767 5762 5756 5751 5746 5742 5738 5734 5731 5728 5725 5722 5720
5867 5866 5865 5863 5862 5860 5859 5858 5857 5855 5854 5854 5852 5846 5845 5842 5840 5837 5833 5830 5825 5820 5815 5809 5803 5797 5791 5784 5777 5770 5764 5758 5752 5747 5742 5737 5733 5728 5724 5721 5718 5714 5711 5708
5866 5865 5864 5863 5862 5860 5859 5857 5855 5854 5853 5852 5852 5847 5844 5841 5838 5834 5831 5826 5821 5816 5811 5805 5798 5791 5784 5777 5770 5763 5756 5749 5743 5738 5732 5727 5723 5718 5714 5710 5706 5703 5699 5696
5864 5864 5863 5861 5858 5858 5858 5856 5854 5853 5852 5851 5850 5847 5842 5838 5835 5831 5827 5822 5817 5812 5806 5799 5792 5785 5777 5770 5762 5755 5748 5741 5735 5728 5722 5717 5712 5707 5703 5698 5694 5690 5686 5682
5863 5863 5863 5860 5858 5856 5856 5854 5853 5852 5850 5849 5849 5846 5838 5835 5831 5828 5823 5818 5813 5807 5800 5794 5786 5779 5771 5763 5755 5747 5739 5732 5725 5719 5713 5707 5701 5696 5691 5686 5681 5676 5671 5666
5862 5861 5862 5861 5858 5857 5856 5855 5852 5850 5849 5847 5845 5842 5837 5832 5829 5824 5819 5814 5808 5801 5795 5787 5780 5772 5764 5755 5747 5739 5731 5724 5716 5710 5703 5697 5691 5685 5679 5673 5667 5661 5656 5650
5860 5860 5859 5858 5857 5856 5854 5853 5850 5848 5845 5843 5841 5837 5832 5829 5824 5820 5815 5809 5803 5796 5789 5781 5773 5765 5756 5748 5739 5731 5723 5715 5707 5700 5693 5687 5680 5673 5667 5660 5654 5647 5640 5634
5858 5858 5856 5855 5854 5853 5852 5850 5847 5845 5842 5839 5837 5833 5828 5824 5819 5815 5810 5804 5798 5791 5783 5775 5766 5758 5749 5740 5731 5723 5714 5706 5699 5691 5684 5676 5669 5662 5655 5648 5640 5633 5625 5618
5856 5855 5854 5853 5852 5850 5849 5847 5844 5842 5839 5836 5832 5829 5824 5820 5815 5811 5806 5799 5793 5785 5777 5768 5759 5750 5741 5732 5723 5715 5706 5698 5690 5682 5675 5667 5659 5651 5643 5635 5627 5619 5611 5604
5855 5853 5852 5850 5849 5847 5847 5843 5841 5838 5835 5832 5828 5824 5819 5815 5809 5805 5801 5794 5787 5779 5770 5762 5753 5744 5735 5725 5716 5707 5698 5690 5682 5674 5666 5657 5649 5641 5632 5623 5615 5606 5598 5590
5851 5850 5849 5847 5845 5845 5842 5839 5837 5834 5830 5828 5824 5820 5815 5811 5804 5798 5794 5787 5780 5772 5764 5756 5746 5737 5728 5719 5709 5700 5691 5682 5674 5665 5657 5648 5639 5631 5622 5613 5603 5594 5586 5578
5849 5847 5846 5843 5842 5840 5839 5835 5833 5830 5825 5823 5818 5814 5810 5806 5801 5795 5788 5781 5775 5767 5758 5750 5740 5731 5722 5712 5703 5693 5684 5675 5667 5658 5649 5640 5630 5621 5612 5603 5593 5584 5576 5568
5846 5843 5841 5840 5838 5837 5832 5831 5829 5826 5823 5818 5813 5809 5805 5801 5796 5790 5783 5776 5769 5761 5752 5744 5734 5725 5716 5706 5697 5687 5678 5669 5660 5651 5642 5632 5623 5613 5604 5595 5585 5575 5567 5559
5843 5841 5839 5837 5835 5834 5828 5826 5823 5821 5817 5813 5809 5805 5800 5795 5790 5784 5778 5771 5763 5755 5747 5738 5729 5720 5710 5701 5691 5682 5672 5663 5654 5645 5635 5626 5616 5606 5597 5587 5577 5568 5559 5551
5839 5838 5835 5833 5832 5827 5823 5820 5817 5814 5811 5807 5803 5799 5795 5790 5784 5778 5772 5765 5758 5750 5741 5733 5724 5715 5705 5695 5686 5676 5667 5658 5648 5639 5630 5620 5610 5600 5591 5581 5571 5562 5553 5545
5835 5830 5828 5827 5825 5821 5818 5814 5811 5808 5805 5802 5798 5794 5789 5784 5779 5773 5766 5759 5752 5744 5736 5727 5719 5710 5700 5691 5681 5671 5662 5653 5644 5634 5625 5615 5606 5596 5586 5576 5566 5557 5549 5541
5830 5826 5823 5820 5818 5815 5812 5809 5806 5802 5799 5796 5792 5788 5783 5778 5773 5767 5760 5753 5746 5738 5730 5722 5714 5705 5696 5686 5676 5667 5657 5648 5639 5630 5621 5612 5602 5592 5582 5572 5563 5553 5545 5537
5822 5820 5817 5815 5812 5809 5806 5803 5800 5797 5794 5790 5786 5782 5777 5772 5767 5761 5754 5747 5740 5732 5725 5717 5708 5700 5691 5681 5672 5663 5653 5644 5636 5627 5618 5608 5599 5589 5579 5570 5560 5551 5543 5535